Погода в Мариуполе

Поиск расширенной информации на нашем сайте:

Полезная информация:

Новости сайта



02.01.2020
Опубликован Долгосрочный прогноз погоды по городам России и ближнего зарубежья на январь 2020 года.
Карты: Прогноз на январь и февраль 2020 года, Сравнение прогнозируемой аномалии приземной температуры воздуха на январь 2020 года по разным моделям.




Погода в Мариуполе - сегодня

Время (UTC), дата Ветер
(°,м/с) 
Видим.   Явления Облачность Т
(°С)
Тd
(°С)
f(%) Тe
(°С)
Pmin
(гПа)
dP
(гПа)
Po
(мм)
O2
(г/м3)
Тmin Tmax R s Состояние
почвы
12 19.10.20 270 (З) 20000 м  слаб. ливневой дождь  10/6 720 м кучево-дожд., средняя 
[Cb cap|Ac und]
+14 +12.3 89 +19  1018.3  758  288           
15 19.10.20 330 (СЗ) 20000 м  {ливн. осадки}  10/4 600 м кучево-дожд., средняя 
[Cb cap|Ac und]
+11.2 +9.4 89 +10  1019.2  0.8             
18 19.10.20 310 (СЗ) 20000 м  {ливн. осадки}  8/0 средняя 
[Ac As]
+10.8 +8.5 86 +10  1021.6  2.3  760  293    +16     
21 19.10.20 300 (СЗ) 20000 м    ясно 
+7.4 +6.1 91 +7  1023.5  1.8  761  298           
00 20.10.20 310 (СЗ) 20000 м    ясно 
+5.5 +4.8 95 +4               
03 20.10.20 320 (СЗ) 20000 м    ясно 
+4.8 +4.6 99 +3  1024.9  0.3             
06 20.10.20 320 (СЗ) 10 км    ясно 
+6.8 +6.3 97 +6  1026.4  1.6  763  299  +4.2  -0.8      затоплена
водой 
09 20.10.20 320 (СЗ) 20000 м    ясно 
+12.3 -0.6 41 +13    0.1             
12 20.10.20 290 (З) 20000 м    4/4 600 м 
[Cu hum]
+14.3 -3.6 29 +14  1025.1  -1.2  763  292           
15 20.10.20 290 (З) 20000 м    6/4 600 м средняя 
[Sc diur, vesp|Ac trans]
+11.4 +0 45 +11  1025.6  0.4  763  295           
18 20.10.20 290 (З) 20000 м    ясно 
+7.3 +0.1 60 +7  1026.8  1.1  764  300    +15       
21 20.10.20 290 (З) 20000 м    ясно 
+6.2 +1.1 70 +5  1028.2  1.3  765  301           
00 21.10.20 320 (СЗ) 20000 м    ясно 
+4.4 +1.6 82 +3  1028.8  0.6  765  303           
03 21.10.20 320 (СЗ) 20000 м    ясно 
+3.2 +0.5 82 +1  1029.8  0.9  766  305           
06 21.10.20 330 (СЗ) 10 км    ясно 
+5.6 +2.4 80 +4  1030.5  0.8  766  302  +2.2         
09 21.10.20 140 (ЮВ) 20000 м    3/0 верхняя 
[Ci fib]
+11.5 +1.1 49 +11  1030.2  -0.1  766  296           
12 21.10.20 170 (Ю) 20000 м    9/0 верхняя 
[Cc]
+12.9 +2.2 48 +12  1028.3  -1.9  765  294           
15 21.10.20 220 (ЮЗ) 20000 м    10/0 верхняя 
[Cc]
+10.6 +1.7 54 +10  1027.2  -1.1  764  296           
18 21.10.20 230 (ЮЗ) 20000 м    10/0 средняя, верхняя 
[As trans|Cs]
+10.1 +3.7 64 +10  1025.5  -1.7  763  296    +13.1      мокрая 
21 21.10.20 230 (ЮЗ) 20000 м    8/0 средняя 
[Ac trans]
+10.1 +5.7 74 +10  1025.2  -0.3  763  295           
00 22.10.20 260 (З) 20000 м    ясно 
+10.5 +8.2 86 +10    -1.4             
03 22.10.20 270 (З) 20000 м    10/0 средняя 
[Ac und]
+10.4 +7.4 82 +10  1022.8  -1  761  294           
06 22.10.20 250 (З) 20000 м    10/8 800 м кучево-дожд., средняя 
[Cb cap|Ac und]
+13 +10.7 86 +15  1023  0.3  761  291  +8.8         
09 22.10.20 230 (ЮЗ) 20000 м    10/8 900 м кучево-дожд., средняя 
[Cb cap|Ac und]
+16.3 +12.5 78 +20  1022.9  761  287        мокрый или
старый снег
50-90% 
12 22.10.20 230 (ЮЗ) 20000 м    8/6 900 м кучево-дожд., верхняя 
[Cb cap|Ci fib]
+17.6 +13.1 75 +23  1021.5  -1.4  760  285           
Время (UTC), дата Ветер
(°,м/с) 
Видим.   Явления Облачность Т
(°С)
Тd
(°С)
f(%) Тe
(°С)
Pmin
(гПа)
dP
(гПа)
Po
(мм)
O2
(г/м3)
Тmin Tmax R s Состояние
почвы

Для получения пояснительной информации подведите курсор к названию столбца.

ПОГОДА в Мариуполе - архив

Всё, что Вы хотите узнать о погоде в Мариуполе - удобно и подробно!

Выберите нужную дату (начиная с 1 января 2019* года) и нажмите кнопку "Найти".
Будут отображены архивные сводки погоды по пункту Мариуполь, начиная с указанной даты.


Отображать данные в формате CSV (для использования в таблицах Excel)


Внимание! Наш архив погоды предназначен исключительно для личного некоммерческого использования в познавательных целях. Если Вам необходимы официальные справки о состоянии погоды (для производственных, юридических, коммерческих и т.п. целей), обращайтесь в органы Росгидромета.

*Примечание: данная дата относится к архиву по метеостанциям СССР (Россия, СНГ, Балтия).
Архив по метеостанциям Зарубежной Европы и Азии (кроме Китая) хранится 10 дней, по другим регионам земного шара (Китай, Африка, Америка, Австралия, Океания) - 1 день.

Мариуполь - район местоположения метеостанции


Название, широта, долгота, высота метеостанции:
Мариуполь (город) 47°ш. 37.5°д. 70 м над ур. моря [Украина]

Дополнительная информация

В oтличие oт бoльшинства пoгoдных сайтoв мы публикуем пoдрoбную метеoинфoрмацию в детальнoм прoфессиoнальнoм фoрмате.

Характеристики температуры и влажнoсти вoздуха измеряются на высoте 2 м в тени вдали oт зданий и деревьев.
Скoрoсть ветра измеряется на высoте 10 м (на урoвне рoста челoвека скoрoсть ветра ниже в 1.5-2 раза). Если метеoстанция нахoдится в гoрoде или в лесу, тo скoрoсть ветра занижена на 2-4 м/с пo сравнению с oткрытым местoм. Скoрoсть ветра над акватoриями крупных рек и oзёр, а также на вершинах хoлмoв на 2-5 м/с выше, чем в oбычных услoвиях.
Атмoсфернoе давление в разных тoчках местнoсти мoжет значительнo oтличаться oт давления на метеoстанции, в зависимoсти oт услoвий рельефа (при пoдъёме на 10 м давление пoнижается примернo на 1 мм рт.ст.).